Time,TemperatureF,DewpointF,PressureIn,WindDirection,WindDirectionDegrees,WindSpeedMPH,WindSpeedGustMPH,Humidity,HourlyPrecipIn,Conditions,Clouds,dailyrainin,SolarRadiationWatts/m^2,SoftwareType,DateUTC
2013-02-17 00:01:00,45.0,6.0,30.19,WNW,302,8.0,11.0,19,-99.99,,,-99.99,0.000000,,2013-02-17 07:01:00,
2013-02-17 00:11:00,44.0,6.0,30.19,NW,309,10.0,12.0,20,-99.99,,,-99.99,0.000000,,2013-02-17 07:11:00,
2013-02-17 00:21:00,44.0,6.0,30.19,NW,309,10.0,12.0,20,-99.99,,,-99.99,0.000000,,2013-02-17 07:21:00,
2013-02-17 00:31:00,45.0,6.0,30.19,WNW,301,8.0,11.0,19,-99.99,,,-99.99,0.000000,,2013-02-17 07:31:00,
2013-02-17 00:41:00,43.0,6.0,30.18,WNW,301,9.0,11.0,21,-99.99,,,-99.99,0.000000,,2013-02-17 07:41:00,
2013-02-17 00:52:00,43.0,6.0,30.18,WNW,301,9.0,11.0,21,-99.99,,,-99.99,0.000000,,2013-02-17 07:52:00,
2013-02-17 01:01:00,45.0,7.0,30.17,NW,314,8.0,12.0,20,-99.99,,,-99.99,0.000000,,2013-02-17 08:01:00,
2013-02-17 01:11:00,44.0,7.0,30.17,NW,321,8.0,11.0,21,-99.99,,,-99.99,0.000000,,2013-02-17 08:11:00,
2013-02-17 01:21:00,44.0,7.0,30.17,NW,321,8.0,11.0,21,-99.99,,,-99.99,0.000000,,2013-02-17 08:21:00,
2013-02-17 01:31:00,46.0,4.0,30.17,NNW,344,4.0,9.0,17,-99.99,,,-99.99,0.000000,,2013-02-17 08:31:00,
2013-02-17 01:42:00,45.0,2.0,30.17,NNW,334,6.0,9.0,16,-99.99,,,-99.99,0.000000,,2013-02-17 08:42:00,
2013-02-17 01:52:00,45.0,2.0,30.17,NNW,334,6.0,9.0,16,-99.99,,,-99.99,0.000000,,2013-02-17 08:52:00,
2013-02-17 02:01:00,46.0,0.0,30.17,NNW,331,5.0,8.0,14,-99.99,,,-99.99,0.000000,,2013-02-17 09:01:00,
2013-02-17 02:11:00,44.0,1.0,30.16,WNW,287,4.0,6.0,16,-99.99,,,-99.99,0.000000,,2013-02-17 09:11:00,
2013-02-17 02:21:00,44.0,1.0,30.16,WNW,287,4.0,6.0,16,-99.99,,,-99.99,0.000000,,2013-02-17 09:21:00,
2013-02-17 02:31:00,45.0,1.0,30.16,West,281,2.0,5.0,15,-99.99,,,-99.99,0.000000,,2013-02-17 09:31:00,
2013-02-17 02:41:00,46.0,1.0,30.15,WNW,282,2.0,5.0,15,-99.99,,,-99.99,0.000000,,2013-02-17 09:41:00,
2013-02-17 02:52:00,46.0,1.0,30.15,WNW,282,2.0,5.0,15,-99.99,,,-99.99,0.000000,,2013-02-17 09:52:00,
2013-02-17 03:01:00,44.0,3.0,30.14,WNW,296,3.0,6.0,18,-99.99,,,-99.99,0.000000,,2013-02-17 10:01:00,
2013-02-17 03:11:00,42.0,4.0,30.13,West,281,3.0,6.0,19,-99.99,,,-99.99,0.000000,,2013-02-17 10:11:00,
2013-02-17 03:21:00,42.0,4.0,30.13,West,281,3.0,6.0,19,-99.99,,,-99.99,0.000000,,2013-02-17 10:21:00,
2013-02-17 03:31:00,42.0,4.0,30.13,West,270,3.0,5.0,20,-99.99,,,-99.99,0.000000,,2013-02-17 10:31:00,
2013-02-17 03:41:00,41.0,5.0,30.12,WNW,282,3.0,5.0,21,-99.99,,,-99.99,0.000000,,2013-02-17 10:41:00,
2013-02-17 03:52:00,41.0,5.0,30.12,WNW,282,3.0,5.0,21,-99.99,,,-99.99,0.000000,,2013-02-17 10:52:00,
2013-02-17 04:01:00,41.0,5.0,30.12,WNW,294,3.0,5.0,21,-99.99,,,-99.99,0.000000,,2013-02-17 11:01:00,
2013-02-17 04:11:00,41.0,6.0,30.11,WNW,293,3.0,7.0,22,-99.99,,,-99.99,0.000000,,2013-02-17 11:11:00,
2013-02-17 04:21:00,41.0,6.0,30.11,WNW,293,3.0,7.0,22,-99.99,,,-99.99,0.000000,,2013-02-17 11:21:00,
2013-02-17 04:32:00,41.0,6.0,30.11,WNW,297,4.0,7.0,23,-99.99,,,-99.99,0.000000,,2013-02-17 11:32:00,
2013-02-17 04:42:00,41.0,6.0,30.10,WNW,298,4.0,5.0,23,-99.99,,,-99.99,0.000000,,2013-02-17 11:42:00,
2013-02-17 04:52:00,41.0,6.0,30.10,WNW,298,4.0,5.0,23,-99.99,,,-99.99,0.000000,,2013-02-17 11:52:00,
2013-02-17 05:03:00,38.0,6.0,30.10,NW,305,6.0,8.0,25,-99.99,,,-99.99,0.000000,,2013-02-17 12:03:00,
2013-02-17 05:11:00,38.0,6.0,30.09,NW,305,8.0,9.0,26,-99.99,,,-99.99,0.000000,,2013-02-17 12:11:00,
2013-02-17 05:22:00,38.0,6.0,30.09,NW,305,8.0,9.0,26,-99.99,,,-99.99,0.000000,,2013-02-17 12:22:00,
2013-02-17 05:32:00,37.0,6.0,30.09,WNW,301,8.0,9.0,27,-99.99,,,-99.99,0.000000,,2013-02-17 12:32:00,
2013-02-17 05:42:00,37.0,6.0,30.09,WNW,301,7.0,8.0,27,-99.99,,,-99.99,0.000000,,2013-02-17 12:42:00,
2013-02-17 05:52:00,37.0,6.0,30.09,WNW,301,7.0,8.0,27,-99.99,,,-99.99,0.000000,,2013-02-17 12:52:00,
2013-02-17 06:02:00,37.0,6.0,30.09,WNW,294,6.0,8.0,26,-99.99,,,-99.99,0.000000,,2013-02-17 13:02:00,
2013-02-17 06:12:00,37.0,6.0,30.09,WNW,299,5.0,6.0,26,-99.99,,,-99.99,0.000000,,2013-02-17 13:12:00,
2013-02-17 06:22:00,37.0,6.0,30.09,WNW,299,5.0,6.0,26,-99.99,,,-99.99,0.000000,,2013-02-17 13:22:00,
2013-02-17 06:32:00,36.0,5.0,30.09,WNW,302,7.0,9.0,26,-99.99,,,-99.99,0.000000,,2013-02-17 13:32:00,
2013-02-17 06:41:00,35.0,5.0,30.08,WNW,298,7.0,9.0,27,-99.99,,,-99.99,0.000000,,2013-02-17 13:41:00,
2013-02-17 06:52:00,35.0,5.0,30.08,WNW,298,7.0,9.0,27,-99.99,,,-99.99,0.000000,,2013-02-17 13:52:00,
2013-02-17 07:01:00,36.0,5.0,30.07,WNW,289,6.0,7.0,27,-99.99,,,-99.99,0.000000,,2013-02-17 14:01:00,
2013-02-17 07:11:00,36.0,5.0,30.07,WNW,288,5.0,7.0,26,-99.99,,,-99.99,2.090000,,2013-02-17 14:11:00,
2013-02-17 07:21:00,36.0,5.0,30.07,WNW,288,5.0,7.0,26,-99.99,,,-99.99,2.090000,,2013-02-17 14:21:00,
2013-02-17 07:32:00,37.0,5.0,30.07,WNW,294,6.0,8.0,26,-99.99,,,-99.99,17.430000,,2013-02-17 14:32:00,
2013-02-17 07:42:00,37.0,5.0,30.07,WNW,303,6.0,8.0,25,-99.99,,,-99.99,68.339996,,2013-02-17 14:42:00,
2013-02-17 07:53:00,37.0,5.0,30.07,WNW,303,6.0,8.0,25,-99.99,,,-99.99,68.339996,,2013-02-17 14:53:00,
2013-02-17 08:02:00,40.0,6.0,30.08,WNW,303,5.0,8.0,23,-99.99,,,-99.99,136.679993,,2013-02-17 15:02:00,
2013-02-17 08:11:00,44.0,6.0,30.08,WNW,295,0.0,4.0,21,-99.99,,,-99.99,197.350006,,2013-02-17 15:11:00,
2013-02-17 08:21:00,44.0,6.0,30.08,WNW,295,0.0,4.0,21,-99.99,,,-99.99,197.350006,,2013-02-17 15:21:00,
2013-02-17 08:32:00,48.0,6.0,30.09,WNW,292,0.0,2.0,17,-99.99,,,-99.99,259.410004,,2013-02-17 15:32:00,
2013-02-17 08:41:00,49.0,4.0,30.09,SSE,159,2.0,3.0,15,-99.99,,,-99.99,322.170013,,2013-02-17 15:41:00,
2013-02-17 08:52:00,49.0,4.0,30.09,SSE,159,2.0,3.0,15,-99.99,,,-99.99,322.170013,,2013-02-17 15:52:00,
2013-02-17 09:01:00,48.0,5.0,30.10,SE,142,3.0,5.0,17,-99.99,,,-99.99,385.630005,,2013-02-17 16:01:00,
2013-02-17 09:11:00,48.0,5.0,30.10,SE,143,4.0,6.0,16,-99.99,,,-99.99,449.079987,,2013-02-17 16:11:00,
2013-02-17 09:21:00,48.0,5.0,30.10,SE,143,4.0,6.0,16,-99.99,,,-99.99,449.079987,,2013-02-17 16:21:00,
2013-02-17 09:32:00,48.0,5.0,30.10,SE,143,4.0,6.0,16,-99.99,,,-99.99,510.450012,,2013-02-17 16:32:00,
2013-02-17 09:42:00,48.0,6.0,30.09,SE,140,4.0,8.0,17,-99.99,,,-99.99,569.719971,,2013-02-17 16:42:00,
2013-02-17 09:52:00,48.0,6.0,30.09,SE,140,4.0,8.0,17,-99.99,,,-99.99,569.719971,,2013-02-17 16:52:00,
2013-02-17 10:02:00,48.0,6.0,30.09,SE,137,5.0,8.0,17,-99.99,,,-99.99,626.900024,,2013-02-17 17:02:00,
2013-02-17 10:11:00,48.0,6.0,30.08,SE,139,5.0,9.0,17,-99.99,,,-99.99,672.229980,,2013-02-17 17:11:00,
2013-02-17 10:21:00,48.0,6.0,30.08,SE,139,5.0,9.0,17,-99.99,,,-99.99,672.229980,,2013-02-17 17:21:00,
2013-02-17 10:32:00,48.0,6.0,30.08,SE,142,4.0,7.0,17,-99.99,,,-99.99,726.619995,,2013-02-17 17:32:00,
2013-02-17 10:41:00,49.0,6.0,30.08,ESE,118,4.0,8.0,17,-99.99,,,-99.99,783.799988,,2013-02-17 17:41:00,
2013-02-17 10:52:00,49.0,6.0,30.08,ESE,118,4.0,8.0,17,-99.99,,,-99.99,783.799988,,2013-02-17 17:52:00,
2013-02-17 11:02:00,49.0,6.0,30.07,ESE,112,5.0,7.0,17,-99.99,,,-99.99,827.729980,,2013-02-17 18:02:00,
2013-02-17 11:11:00,49.0,7.0,30.07,ESE,123,5.0,8.0,17,-99.99,,,-99.99,864.690002,,2013-02-17 18:11:00,
2013-02-17 11:22:00,49.0,7.0,30.07,ESE,123,5.0,8.0,17,-99.99,,,-99.99,864.690002,,2013-02-17 18:22:00,
2013-02-17 11:33:00,49.0,7.0,30.07,ESE,116,5.0,10.0,17,-99.99,,,-99.99,895.380005,,2013-02-17 18:33:00,
2013-02-17 11:42:00,50.0,6.0,30.06,SE,130,5.0,9.0,16,-99.99,,,-99.99,931.640015,,2013-02-17 18:42:00,
2013-02-17 11:52:00,50.0,6.0,30.06,SE,130,5.0,9.0,16,-99.99,,,-99.99,931.640015,,2013-02-17 18:52:00,
2013-02-17 12:01:00,50.0,6.0,30.05,ESE,120,4.0,9.0,15,-99.99,,,-99.99,954.650024,,2013-02-17 19:01:00,
2013-02-17 12:11:00,51.0,5.0,30.04,ESE,120,4.0,9.0,14,-99.99,,,-99.99,966.500000,,2013-02-17 19:11:00,
2013-02-17 12:21:00,51.0,5.0,30.04,ESE,120,4.0,9.0,14,-99.99,,,-99.99,966.500000,,2013-02-17 19:21:00,
2013-02-17 12:32:00,53.0,6.0,30.03,SE,142,5.0,10.0,14,-99.99,,,-99.99,986.030029,,2013-02-17 19:32:00,
2013-02-17 12:42:00,54.0,6.0,30.02,SSE,163,5.0,10.0,14,-99.99,,,-99.99,961.619995,,2013-02-17 19:42:00,
2013-02-17 12:52:00,54.0,6.0,30.02,SSE,163,5.0,10.0,14,-99.99,,,-99.99,961.619995,,2013-02-17 19:52:00,
2013-02-17 13:02:00,55.0,6.0,30.00,SE,143,5.0,11.0,13,-99.99,,,-99.99,937.909973,,2013-02-17 20:02:00,
2013-02-17 13:11:00,56.0,6.0,29.99,SSE,148,4.0,9.0,13,-99.99,,,-99.99,1012.530029,,2013-02-17 20:11:00,
2013-02-17 13:21:00,56.0,6.0,29.99,SSE,148,4.0,9.0,13,-99.99,,,-99.99,1012.530029,,2013-02-17 20:21:00,
2013-02-17 13:32:00,59.0,4.0,29.98,WSW,246,7.0,23.0,10,-99.99,,,-99.99,1002.770020,,2013-02-17 20:32:00,
2013-02-17 13:42:00,61.0,2.0,29.97,WSW,255,12.0,21.0,9,-99.99,,,-99.99,907.929993,,2013-02-17 20:42:00,
2013-02-17 13:52:00,61.0,2.0,29.97,WSW,255,12.0,21.0,9,-99.99,,,-99.99,907.929993,,2013-02-17 20:52:00,
2013-02-17 14:02:00,61.0,2.0,29.96,West,264,14.0,25.0,9,-99.99,,,-99.99,956.739990,,2013-02-17 21:02:00,
2013-02-17 14:11:00,61.0,2.0,29.95,West,265,15.0,26.0,9,-99.99,,,-99.99,948.369995,,2013-02-17 21:11:00,
2013-02-17 14:21:00,61.0,2.0,29.95,West,265,15.0,26.0,9,-99.99,,,-99.99,948.369995,,2013-02-17 21:21:00,
2013-02-17 14:32:00,60.0,2.0,29.94,West,270,16.0,27.0,9,-99.99,,,-99.99,893.280029,,2013-02-17 21:32:00,
2013-02-17 14:42:00,61.0,3.0,29.93,WNW,282,17.0,30.0,9,-99.99,,,-99.99,891.190002,,2013-02-17 21:42:00,
2013-02-17 14:53:00,61.0,3.0,29.93,WNW,282,17.0,30.0,9,-99.99,,,-99.99,891.190002,,2013-02-17 21:53:00,
2013-02-17 15:01:00,61.0,3.0,29.92,West,279,17.0,30.0,9,-99.99,,,-99.99,828.429993,,2013-02-17 22:01:00,
2013-02-17 15:12:00,61.0,3.0,29.91,West,271,16.0,33.0,9,-99.99,,,-99.99,817.270020,,2013-02-17 22:12:00,
2013-02-17 15:22:00,61.0,3.0,29.91,West,271,16.0,33.0,9,-99.99,,,-99.99,817.270020,,2013-02-17 22:22:00,
2013-02-17 15:32:00,61.0,3.0,29.91,West,272,20.0,33.0,9,-99.99,,,-99.99,771.950012,,2013-02-17 22:32:00,
2013-02-17 15:42:00,62.0,3.0,29.90,West,269,21.0,35.0,9,-99.99,,,-99.99,722.440002,,2013-02-17 22:42:00,
2013-02-17 15:52:00,62.0,3.0,29.90,West,269,21.0,35.0,9,-99.99,,,-99.99,722.440002,,2013-02-17 22:52:00,
2013-02-17 16:02:00,62.0,3.0,29.90,West,262,20.0,32.0,9,-99.99,,,-99.99,665.260010,,2013-02-17 23:02:00,
2013-02-17 16:11:00,62.0,2.0,29.90,WSW,255,21.0,34.0,8,-99.99,,,-99.99,602.500000,,2013-02-17 23:11:00,
2013-02-17 16:21:00,62.0,2.0,29.90,WSW,255,21.0,34.0,8,-99.99,,,-99.99,602.500000,,2013-02-17 23:21:00,
2013-02-17 16:32:00,62.0,2.0,29.90,West,271,17.0,28.0,8,-99.99,,,-99.99,550.200012,,2013-02-17 23:32:00,
2013-02-17 16:42:00,62.0,2.0,29.90,WSW,257,17.0,29.0,9,-99.99,,,-99.99,489.529999,,2013-02-17 23:42:00,
2013-02-17 16:52:00,62.0,2.0,29.90,WSW,257,17.0,29.0,9,-99.99,,,-99.99,489.529999,,2013-02-17 23:52:00,
2013-02-17 17:01:00,62.0,2.0,29.90,WSW,257,17.0,29.0,9,-99.99,,,-99.99,489.529999,,2013-02-18 00:01:00,
2013-02-17 17:11:00,61.0,3.0,29.89,West,274,14.0,27.0,9,-99.99,,,-99.99,345.179993,,2013-02-18 00:11:00,
2013-02-17 17:22:00,61.0,3.0,29.89,West,274,14.0,27.0,9,-99.99,,,-99.99,345.179993,,2013-02-18 00:22:00,
2013-02-17 17:32:00,61.0,3.0,29.89,West,270,11.0,19.0,9,-99.99,,,-99.99,271.260010,,2013-02-18 00:32:00,
2013-02-17 17:41:00,60.0,4.0,29.88,West,268,10.0,20.0,9,-99.99,,,-99.99,164.570007,,2013-02-18 00:41:00,
2013-02-17 17:52:00,60.0,4.0,29.88,West,268,10.0,20.0,9,-99.99,,,-99.99,164.570007,,2013-02-18 00:52:00,
2013-02-17 18:01:00,60.0,4.0,29.87,West,278,11.0,21.0,10,-99.99,,,-99.99,84.379997,,2013-02-18 01:01:00,
2013-02-17 18:12:00,60.0,5.0,29.88,West,263,11.0,19.0,10,-99.99,,,-99.99,15.340000,,2013-02-18 01:12:00,
2013-02-17 18:21:00,60.0,5.0,29.88,West,263,11.0,19.0,10,-99.99,,,-99.99,15.340000,,2013-02-18 01:21:00,
2013-02-17 18:31:00,59.0,5.0,29.88,West,265,8.0,13.0,11,-99.99,,,-99.99,4.880000,,2013-02-18 01:31:00,
2013-02-17 18:41:00,56.0,4.0,29.88,West,278,7.0,10.0,11,-99.99,,,-99.99,0.700000,,2013-02-18 01:41:00,
2013-02-17 18:52:00,56.0,4.0,29.88,West,278,7.0,10.0,11,-99.99,,,-99.99,0.700000,,2013-02-18 01:52:00,
2013-02-17 19:01:00,56.0,4.0,29.88,West,278,7.0,10.0,11,-99.99,,,-99.99,0.700000,,2013-02-18 02:01:00,
2013-02-17 19:11:00,58.0,5.0,29.88,WSW,255,8.0,20.0,11,-99.99,,,-99.99,0.000000,,2013-02-18 02:11:00,
2013-02-17 19:21:00,58.0,5.0,29.88,WSW,255,8.0,20.0,11,-99.99,,,-99.99,0.000000,,2013-02-18 02:21:00,
2013-02-17 19:32:00,59.0,5.0,29.88,West,267,7.0,15.0,11,-99.99,,,-99.99,0.000000,,2013-02-18 02:32:00,
2013-02-17 19:41:00,57.0,4.0,29.88,West,280,10.0,21.0,11,-99.99,,,-99.99,0.000000,,2013-02-18 02:41:00,
2013-02-17 19:52:00,57.0,4.0,29.88,West,280,10.0,21.0,11,-99.99,,,-99.99,0.000000,,2013-02-18 02:52:00,
2013-02-17 20:01:00,58.0,4.0,29.88,West,264,10.0,17.0,11,-99.99,,,-99.99,0.000000,,2013-02-18 03:01:00,
2013-02-17 20:11:00,59.0,5.0,29.88,WSW,254,13.0,25.0,10,-99.99,,,-99.99,0.000000,,2013-02-18 03:11:00,
2013-02-17 20:21:00,59.0,5.0,29.88,WSW,254,13.0,25.0,10,-99.99,,,-99.99,0.000000,,2013-02-18 03:21:00,
2013-02-17 20:31:00,59.0,5.0,29.88,WSW,244,11.0,20.0,11,-99.99,,,-99.99,0.000000,,2013-02-18 03:31:00,
2013-02-17 20:42:00,59.0,6.0,29.89,WSW,251,15.0,27.0,11,-99.99,,,-99.99,0.000000,,2013-02-18 03:42:00,
2013-02-17 20:52:00,59.0,6.0,29.89,WSW,251,15.0,27.0,11,-99.99,,,-99.99,0.000000,,2013-02-18 03:52:00,
2013-02-17 21:01:00,59.0,6.0,29.89,WSW,251,15.0,27.0,11,-99.99,,,-99.99,0.000000,,2013-02-18 04:01:00,
2013-02-17 21:11:00,58.0,6.0,29.89,WSW,253,17.0,29.0,12,-99.99,,,-99.99,0.000000,,2013-02-18 04:11:00,
2013-02-17 21:21:00,58.0,6.0,29.89,WSW,253,17.0,29.0,12,-99.99,,,-99.99,0.000000,,2013-02-18 04:21:00,
2013-02-17 21:32:00,58.0,6.0,29.89,WSW,256,16.0,28.0,12,-99.99,,,-99.99,0.000000,,2013-02-18 04:32:00,
2013-02-17 21:41:00,56.0,6.0,29.90,West,264,9.0,18.0,12,-99.99,,,-99.99,0.000000,,2013-02-18 04:41:00,
2013-02-17 21:52:00,56.0,6.0,29.90,West,264,9.0,18.0,12,-99.99,,,-99.99,0.000000,,2013-02-18 04:52:00,
2013-02-17 22:02:00,56.0,5.0,29.91,West,264,13.0,27.0,12,-99.99,,,-99.99,0.000000,,2013-02-18 05:02:00,
2013-02-17 22:11:00,56.0,4.0,29.91,West,266,14.0,28.0,11,-99.99,,,-99.99,0.000000,,2013-02-18 05:11:00,
2013-02-17 22:21:00,56.0,4.0,29.91,West,266,14.0,28.0,11,-99.99,,,-99.99,0.000000,,2013-02-18 05:21:00,
2013-02-17 22:31:00,55.0,4.0,29.91,West,265,12.0,21.0,12,-99.99,,,-99.99,0.000000,,2013-02-18 05:31:00,
2013-02-17 22:41:00,55.0,4.0,29.92,West,266,15.0,25.0,12,-99.99,,,-99.99,0.000000,,2013-02-18 05:41:00,
2013-02-17 22:52:00,55.0,4.0,29.92,West,266,15.0,25.0,12,-99.99,,,-99.99,0.000000,,2013-02-18 05:52:00,
2013-02-17 23:02:00,54.0,3.0,29.91,West,271,13.0,29.0,12,-99.99,,,-99.99,0.000000,,2013-02-18 06:02:00,
2013-02-17 23:11:00,54.0,3.0,29.91,West,268,15.0,26.0,12,-99.99,,,-99.99,0.000000,,2013-02-18 06:11:00,
2013-02-17 23:21:00,54.0,3.0,29.91,West,268,15.0,26.0,12,-99.99,,,-99.99,0.000000,,2013-02-18 06:21:00,
2013-02-17 23:32:00,54.0,3.0,29.91,West,268,15.0,26.0,12,-99.99,,,-99.99,0.000000,,2013-02-18 06:32:00,
2013-02-17 23:41:00,53.0,3.0,29.91,West,267,14.0,24.0,12,-99.99,,,-99.99,0.000000,,2013-02-18 06:41:00,
2013-02-17 23:52:00,53.0,3.0,29.91,West,267,14.0,24.0,12,-99.99,,,-99.99,0.000000,,2013-02-18 06:52:00,